Volver al catálogo

CZ-2C R/B

ActivoSSO
NORAD 62078·ROCKET BODY·🇨🇳 China

Lanzado Nov 24, 2024 desde Jiuquan Satellite Launch Center

Loading…

Próximos Pases (próximas 24 horas)

TLE

ActualizadoSource: Space-Track

Época: Sep 13, 2026, 23:00 UTC

1 62078U 24218A   26256.95833641  .00004907  00000-0  19348-3 0  9998
2 62078  97.5334 273.0112 0044797  58.9252 301.6370 15.25118662 99986

Sigue CZ-2C R/B en tiempo real con AllMySat

Download on the App Store